Wisconsin Dells, Wisconsin, United States (53965)
Lat: 43.63N, Lon: 89.77W
Wx Zone: WIZ057
Local Info
Past Weather Observations for Sunday, May 17, 2015

NOTE: This archive is for the closest National Weather Service station to Wisconsin Dells. Information may differ from the station used for current weather conditions.

Click here for Long-term Archive

Time Weather Temperature Dewpoint Humidity Pressure Winds Precip Visibility
23:55
Clear
66°F / 19°C 54°F / 12°C 64% 29.86 in
(1011 mb)
SW 11.5 mph
(SW 19 kph)
- 10SM
23:35
Clear
68°F / 20°C 54°F / 12°C 60% 29.83 in
(1010 mb)
SW 11.5 mph
(SW 19 kph)
- 10SM
23:15
Clear
68°F / 20°C 54°F / 12°C 60% 29.83 in
(1010 mb)
SW 13.8 mph
(SW 22 kph)
- 10SM
22:55
Partly Cloudy
68°F / 20°C 54°F / 12°C 60% 29.83 in
(1010 mb)
SW 15 mph
(SW 24 kph)
- 10SM
22:35
Mostly Cloudy
70°F / 21°C 54°F / 12°C 57% 29.83 in
(1010 mb)
SW 13.8 mph
(SW 22 kph)
- 10SM
22:15
Mostly Cloudy
70°F / 21°C 54°F / 12°C 57% 29.83 in
(1010 mb)
SW 10.4 mph
(SW 17 kph)
- 10SM
21:55
Partly Cloudy
68°F / 20°C 54°F / 12°C 60% 29.83 in
(1010 mb)
SSE 10.4 mph
(SSE 17 kph)
- 10SM
21:35
Clear
68°F / 20°C 54°F / 12°C 60% 29.8 in
(1009 mb)
SW 9.2 mph
(SW 15 kph)
- 10SM
21:15
Clear
70°F / 21°C 54°F / 12°C 57% 29.83 in
(1010 mb)
SW 10.4 mph
(SW 17 kph)
- 10SM
20:55
Clear
70°F / 21°C 54°F / 12°C 57% 29.83 in
(1010 mb)
SW 10.4 mph
(SW 17 kph)
- 10SM
20:35
Partly Cloudy
72°F / 22°C 55°F / 13°C 57% 29.8 in
(1009 mb)
SW 13.8 mph
(SW 22 kph)
- 10SM
20:15
Partly Cloudy
73°F / 23°C 55°F / 13°C 53% 29.8 in
(1009 mb)
SW 13.8 mph
(SW 22 kph)
- 10SM
19:55
Clear
73°F / 23°C 55°F / 13°C 53% 29.77 in
(1008 mb)
SW 12.7 mph
(SW 20 kph)
- 10SM
19:35
Partly Cloudy
73°F / 23°C 55°F / 13°C 53% 29.77 in
(1008 mb)
SW 16.1 mph
(SW 26 kph)
- 10SM
19:15
Partly Cloudy
73°F / 23°C 55°F / 13°C 53% 29.77 in
(1008 mb)
SW 9.2 mph
(SW 15 kph)
- 10SM
18:55
Partly Cloudy
75°F / 24°C 54°F / 12°C 47% 29.77 in
(1008 mb)
SW 10.4 mph
(SW 17 kph)
- 10SM
18:35
Mostly Cloudy
75°F / 24°C 54°F / 12°C 47% 29.74 in
(1007 mb)
SW 24.2 mph
(SW 39 kph)
- 10SM
18:15
Mostly Cloudy
75°F / 24°C 54°F / 12°C 47% 29.74 in
(1007 mb)
SW 17.3 mph
(SW 28 kph)
- 10SM
17:55
Partly Cloudy
77°F / 25°C 54°F / 12°C 44% 29.74 in
(1007 mb)
SSE 20.7 mph
(SSE 33 kph)
- 10SM
17:35
Clear
77°F / 25°C 55°F / 13°C 47% 29.74 in
(1007 mb)
SW 23 mph
(SW 37 kph)
- 10SM
17:15
Partly Cloudy
77°F / 25°C 55°F / 13°C 47% 29.74 in
(1007 mb)
SW 16.1 mph
(SW 26 kph)
- 10SM
16:55
Partly Cloudy
77°F / 25°C 55°F / 13°C 47% 29.71 in
(1006 mb)
S 17.3 mph
(S 28 kph)
- 10SM
16:35
Partly Cloudy
79°F / 26°C 54°F / 12°C 42% 29.71 in
(1006 mb)
SW 24.2 mph
(SW 39 kph)
- 10SM
16:15
Partly Cloudy
79°F / 26°C 55°F / 13°C 45% 29.71 in
(1006 mb)
SSE 24.2 mph
(SSE 39 kph)
- 10SM
15:55
Partly Cloudy
79°F / 26°C 57°F / 14°C 48% 29.71 in
(1006 mb)
S 15 mph
(S 24 kph)
- 10SM
15:35
Clear
79°F / 26°C 57°F / 14°C 48% 29.74 in
(1007 mb)
SSE 21.9 mph
(SSE 35 kph)
- 10SM
15:15
Clear
79°F / 26°C 59°F / 15°C 51% 29.74 in
(1007 mb)
SSE 15 mph
(SSE 24 kph)
- 10SM
14:55
Partly Cloudy
77°F / 25°C 59°F / 15°C 54% 29.74 in
(1007 mb)
S 20.7 mph
(S 33 kph)
- 10SM
14:35
Partly Cloudy
75°F / 24°C 57°F / 14°C 54% 29.77 in
(1008 mb)
SW 18.4 mph
(SW 30 kph)
- 10SM
14:15
Partly Cloudy
77°F / 25°C 57°F / 14°C 51% 29.77 in
(1008 mb)
SSE 19.6 mph
(SSE 32 kph)
- 10SM
13:55
Partly Cloudy
77°F / 25°C 57°F / 14°C 51% 29.77 in
(1008 mb)
SW 24.2 mph
(SW 39 kph)
- 10SM
13:35
Clear
75°F / 24°C 59°F / 15°C 57% 29.77 in
(1008 mb)
SW 19.6 mph
(SW 32 kph)
- 10SM
13:15
Partly Cloudy
73°F / 23°C 66°F / 19°C 78% 29.8 in
(1009 mb)
S 12.7 mph
(S 20 kph)
- 10SM
12:55
Mostly Cloudy
72°F / 22°C 66°F / 19°C 83% 29.8 in
(1009 mb)
S 13.8 mph
(S 22 kph)
0.02 in
(0.51 mm)
10SM
12:35
Overcast
70°F / 21°C 66°F / 19°C 88% 29.8 in
(1009 mb)
S 11.5 mph
(S 19 kph)
0.02 in
(0.51 mm)
10SM
12:15
Overcast
Light Rain
70°F / 21°C 64°F / 18°C 83% 29.8 in
(1009 mb)
S 10.4 mph
(S 17 kph)
0.02 in
(0.51 mm)
3SM
11:55
Overcast
72°F / 22°C 64°F / 18°C 78% 29.8 in
(1009 mb)
S 15 mph
(S 24 kph)
- 10SM
11:35
Overcast
73°F / 23°C 64°F / 18°C 74% 29.8 in
(1009 mb)
S 17.3 mph
(S 28 kph)
- 10SM
11:15
Overcast
73°F / 23°C 64°F / 18°C 74% 29.8 in
(1009 mb)
SSE 16.1 mph
(SSE 26 kph)
- 10SM
10:55
Overcast
72°F / 22°C 64°F / 18°C 78% 29.8 in
(1009 mb)
SSE 12.7 mph
(SSE 20 kph)
- 10SM
10:35
Overcast
72°F / 22°C 64°F / 18°C 78% 29.77 in
(1008 mb)
SE 19.6 mph
(SE 32 kph)
- 10SM
10:15
Overcast
70°F / 21°C 64°F / 18°C 83% 29.77 in
(1008 mb)
SSE 21.9 mph
(SSE 35 kph)
- 10SM
09:55
Overcast
70°F / 21°C 64°F / 18°C 83% 29.77 in
(1008 mb)
SSE 19.6 mph
(SSE 32 kph)
- 10SM
09:35
Overcast
70°F / 21°C 64°F / 18°C 83% 29.77 in
(1008 mb)
SE 18.4 mph
(SE 30 kph)
- 10SM
09:15
Overcast
68°F / 20°C 64°F / 18°C 88% 29.77 in
(1008 mb)
SE 19.6 mph
(SE 32 kph)
- 7SM
08:55
Overcast
Fog And Mist
68°F / 20°C 64°F / 18°C 88% 29.8 in
(1009 mb)
SE 15 mph
(SE 24 kph)
- 5SM
08:35
Overcast
68°F / 20°C 64°F / 18°C 88% 29.8 in
(1009 mb)
SSE 17.3 mph
(SSE 28 kph)
- 10SM
08:15
Overcast
68°F / 20°C 64°F / 18°C 88% 29.83 in
(1010 mb)
SSE 19.6 mph
(SSE 32 kph)
- 10SM
07:55
Overcast
68°F / 20°C 64°F / 18°C 88% 29.83 in
(1010 mb)
SE 16.1 mph
(SE 26 kph)
- 10SM
07:35
Overcast
68°F / 20°C 63°F / 17°C 83% 29.86 in
(1011 mb)
SE 13.8 mph
(SE 22 kph)
- 10SM
07:15
Overcast
68°F / 20°C 63°F / 17°C 83% 29.86 in
(1011 mb)
SE 12.7 mph
(SE 20 kph)
- 10SM
06:55
Overcast
66°F / 19°C 63°F / 17°C 88% 29.89 in
(1012 mb)
SE 11.5 mph
(SE 19 kph)
- 7SM
06:35
Overcast
66°F / 19°C 63°F / 17°C 88% 29.89 in
(1012 mb)
SE 12.7 mph
(SE 20 kph)
- 10SM
06:15
Overcast
66°F / 19°C 63°F / 17°C 88% 29.89 in
(1012 mb)
SE 11.5 mph
(SE 19 kph)
- 10SM
05:55
Overcast
66°F / 19°C 63°F / 17°C 88% 29.89 in
(1012 mb)
SE 13.8 mph
(SE 22 kph)
- 10SM
05:35
Overcast
66°F / 19°C 63°F / 17°C 88% 29.89 in
(1012 mb)
SE 9.2 mph
(SE 15 kph)
- 10SM
05:15
Overcast
66°F / 19°C 63°F / 17°C 88% 29.89 in
(1012 mb)
SE 11.5 mph
(SE 19 kph)
- 10SM
04:55
Overcast
66°F / 19°C 63°F / 17°C 88% 29.92 in
(1013 mb)
SSE 12.7 mph
(SSE 20 kph)
- 10SM
04:35
Overcast
66°F / 19°C 63°F / 17°C 88% 29.92 in
(1013 mb)
SSE 8.1 mph
(SSE 13 kph)
- 10SM
04:15
Overcast
66°F / 19°C 63°F / 17°C 88% 29.89 in
(1012 mb)
SE 9.2 mph
(SE 15 kph)
- 10SM
03:55
Overcast
66°F / 19°C 63°F / 17°C 88% 29.92 in
(1013 mb)
SSE 10.4 mph
(SSE 17 kph)
- 10SM
03:35
Overcast
66°F / 19°C 63°F / 17°C 88% 29.92 in
(1013 mb)
SSE 8.1 mph
(SSE 13 kph)
- 10SM
03:15
Overcast
66°F / 19°C 63°F / 17°C 88% 29.92 in
(1013 mb)
SE 8.1 mph
(SE 13 kph)
- 10SM
02:55
Overcast
66°F / 19°C 63°F / 17°C 88% 29.92 in
(1013 mb)
S 6.9 mph
(S 11 kph)
- 10SM
02:35
Overcast
66°F / 19°C 63°F / 17°C 88% 29.92 in
(1013 mb)
S 6.9 mph
(S 11 kph)
- 10SM
02:15
Overcast
66°F / 19°C 63°F / 17°C 88% 29.92 in
(1013 mb)
SSE 9.2 mph
(SSE 15 kph)
- 10SM
01:55
Mostly Cloudy
66°F / 19°C 63°F / 17°C 88% 29.92 in
(1013 mb)
SE 9.2 mph
(SE 15 kph)
- 10SM
01:35
Partly Cloudy
66°F / 19°C 63°F / 17°C 88% 29.92 in
(1013 mb)
SE 6.9 mph
(SE 11 kph)
- 10SM
01:15
Clear
66°F / 19°C 63°F / 17°C 88% 29.92 in
(1013 mb)
SE 6.9 mph
(SE 11 kph)
- 10SM
00:55
Clear
66°F / 19°C 63°F / 17°C 88% 29.92 in
(1013 mb)
SE 6.9 mph
(SE 11 kph)
- 10SM
00:35
Clear
66°F / 19°C 63°F / 17°C 88% 29.92 in
(1013 mb)
SE 5.8 mph
(SE 9 kph)
- 10SM
00:15
Clear
66°F / 19°C 63°F / 17°C 88% 29.95 in
(1014 mb)
SE 4.6 mph
(SE 7 kph)
- 7SM
Time Weather Temperature Dewpoint Humidity Pressure Winds Precip Visibility


Weather for websites

WeatherForYou.com, LLC is not responsible for any damages or problems caused by this service. Current weather conditions are obtained from the closest station including government and personal stations which may have varying degrees of accuracy. Weather forecasts are derived from the NOAA NDFD. Like all things, this site belongs to Jesus Christ... He just trusts us to maintain it. If you have any questions or comments email webmaster@weatherforyou.com

Copyright © 2015, WeatherForYou.com LLC. All rights reserved.